Location: El Gallo
(32.4380°N, 116.9347°W)
Time: 20:26:52
(UTC+00:00)

NOSS 3-2 (C) - Pass Details

Date: 01 October 2022
Orbit: 739 x 1473 km, 63.4° (Epoch: 25 November)

Event Time Altitude Azimuth Distance (km) Brightness Sun altitude
Exits shadow 13:01:39 - 236° (SW) 2,565 5.2 -9.3°
Reaches altitude 10° 13:02:25 10° 239° (WSW) 2,296 4.9 -9.2°
Maximum altitude 13:07:15 38° 307° (NW) 1,231 3.7 -8.1°
Drops below altitude 10° 13:12:44 10° 15° (NNE) 2,603 6.0 -7.0°
Sets 13:15:40 0° 23° (NNE) 3,664 6.8 -6.4°
